Temperature
17 17 17 17 17 17 17 17 17 17 16 16 16 16 15 15 15 15 15 15 15 14 14 14 14 14 14 14 14 14 14 14 14 14 14 14 14 14 14 14 13 13 13
18 17 17 17 17 17 17 17 17 16 16 16 16 16 16 15 15 15 15 15 15 15 14 14 14 14 14 14 14 14 14 14 13 14 14 14 14 14 13 13 13 13 13
18 17 17 17 17 17 17 17 17 16 16 16 16 16 16 15 15 15 15 15 15 15 15 14 14 14 14 14 14 14 14 13 13 13 14 14 14 13 13 13 13 13 13
18 17 17 17 17 17 17 17 17 16 16 16 16 16 16 15 15 15 15 15 15 15 15 14 14 14 14 14 14 14 14 13 13 13 13 13 13 13 13 13 13 13 13
18 18 18 18 18 17 17 17 17 16 16 16 16 16 16 15 15 15 15 15 15 15 15 14 14 14 14 14 14 14 13 13 13 13 13 13 13 13 13 13 13 13 13
18 18 18 18 17 17 17 17 16 16 16 16 16 16 16 15 15 15 15 15 15 15 15 14 14 14 14 14 14 14 13 13 13 13 13 13 13 13 13 13 12 12 12
18 18 18 18 17 17 17 17 17 16 16 16 16 16 16 15 15 15 15 15 14 14 14 14 14 14 14 14 14 13 13 13 13 13 13 13 13 13 12 12 12 12 12
18 18 18 17 17 17 17 17 17 16 16 16 16 16 15 15 15 15 15 14 14 14 14 14 14 14 14 14 13 13 13 13 13 13 13 13 13 12 12 12 12 12 12
18 18 18 17 17 17 17 17 16 16 16 16 15 15 15 15 15 14 14 14 14 14 14 13 13 13 13 13 13 13 13 13 13 13 12 12 12 12 12 11 11 11 11
17 17 17 17 17 17 16 16 16 15 15 15 15 15 15 15 14 14 14 13 13 13 13 13 13 13 13 13 12 12 13 13 12 12 12 12 12 12 12 11 11 11 11
16 16 16 16 16 16 16 15 15 15 15 14 14 14 14 14 14 14 13 13 13 13 13 13 13 12 12 12 12 12 12 12 11 11 11 12 12 12 11 11 11 11 10
16 15 15 15 15 15 15 15 15 14 14 14 13 13 13 13 13 13 13 12 12 12 12 12 12 12 11 11 11 11 11 11 11 11 11 11 11 11 11 11 11 10 10
15 15 15 14 14 14 14 14 14 13 13 13 13 13 13 12 12 12 12 12 12 11 11 11 11 11 11 11 10 10 10 10 10 10 10 10 10 10 10 10 10 10 10
14 14 14 14 14 13 13 13 13 12 12 12 12 12 12 12 12 11 11 11 11 11 11 10 10 10 10 10 10 10 10 10 9 9 9 9 9 9 9 9 9 9 9
13 13 13 13 13 13 12 12 12 12 12 12 12 11 11 11 11 11 11 10 10 10 10 10 10 10 10 10 10 10 9 9 9 9 9 9 9 9 9 9 8 8 8
13 13 12 12 12 12 12 12 12 12 12 11 11 11 11 11 11 10 10 10 10 10 10 9 9 9 9 9 9 9 9 9 9 8 8 8 8 8 8 8 8 8 8
12 12 12 12 11 11 11 11 11 11 11 11 11 11 11 10 10 10 10 10 10 9 9 9 9 9 9 8 8 8 8 8 8 8 8 8 7 7 7 7 7 7 7
11 11 11 11 11 11 11 11 11 11 11 11 10 10 10 10 10 10 10 9 9 9 9 9 8 8 8 8 8 8 7 7 7 7 7 7 7 7 7 7 7 7 7
11 11 11 10 10 10 10 10 10 10 10 10 10 10 10 10 10 9 9 9 9 9 8 8 8 8 8 7 7 7 7 7 7 7 7 6 6 6 6 6 6 6 6
10 10 10 10 10 10 10 10 10 10 10 10 10 10 9 9 9 9 9 9 8 8 8 8 7 7 7 7 7 6 6 6 6 6 6 6 6 6 6 6 6 6 6
10 10 10 9 9 9 9 9 9 9 9 9 9 9 9 9 9 8 8 8 8 8 7 7 7 7 6 6 6 6 6 6 6 6 5 5 5 5 5 5 5 5 5
9 9 9 9 9 9 9 9 8 8 8 8 8 8 8 8 8 8 8 7 7 7 7 6 6 6 6 6 5 5 5 5 5 5 5 5 5 5 5 5 5 5 5
9 9 9 8 8 8 8 8 8 8 7 7 7 7 7 7 7 7 7 7 6 6 6 6 6 6 5 5 5 5 5 5 5 5 5 5 5 5 5 5 5 5 5
8 8 8 8 7 7 7 7 7 7 7 6 6 6 6 6 6 6 6 6 6 6 6 5 5 5 5 5 5 5 5 5 4 4 4 4 4 4 4 4 5 4 4
7 7 7 7 6 6 6 6 6 6 6 5 5 5 5 5 5 5 5 5 5 5 5 5 5 5 5 5 5 5 5 5 4 4 4 4 4 4 4 4 4 4 4
6 6 6 6 5 5 5 5 5 5 5 5 4 4 4 4 4 4 4 4 4 4 4 4 4 4 4 4 4 4 4 5 5 4 4 4 4 4 4 4 4 4 5
Wind_Speed
8 8 8 8 8 7 7 8 8 7 8 9 9 9 9 8 7 7 6 6 6 5 4 5 5 4 3 3 3 3 3 3 3 3 3 3 3 4 4 5 6 7 8
8 8 8 7 7 7 7 7 7 8 8 9 8 9 9 9 8 9 8 8 8 7 7 6 6 5 5 4 4 4 4 4 4 5 3 3 4 4 4 5 6 6 8
8 8 8 7 7 8 7 7 7 7 7 8 8 9 9 9 9 9 9 8 9 8 8 8 7 6 6 5 5 5 4 4 4 4 4 3 3 3 3 4 5 5 7
9 9 9 9 9 8 7 7 7 8 8 8 9 10 10 9 10 9 9 9 8 8 8 8 8 8 8 7 6 6 5 4 4 4 5 4 4 4 3 4 5 4 5
9 9 9 8 8 7 7 7 7 7 8 8 8 8 8 8 9 9 9 9 8 8 7 7 8 9 10 8 6 6 6 5 5 5 5 4 5 4 5 4 5 6 6
8 8 7 6 7 7 7 6 6 6 6 7 8 8 8 8 10 13 11 8 8 8 8 7 7 8 9 11 12 10 9 8 7 6 6 7 8 7 5 5 5 5 6
7 7 7 7 7 7 7 6 7 7 6 6 7 7 8 9 11 12 13 8 8 8 8 7 6 6 7 7 8 9 10 12 12 8 9 10 9 7 6 7 7 8 9
6 6 6 7 7 6 6 7 6 5 6 6 7 7 7 8 10 11 11 8 6 7 7 7 7 6 6 6 6 6 7 8 9 9 10 11 10 8 7 7 8 8 9
5 5 5 6 7 7 7 7 6 6 6 6 5 6 7 7 9 10 9 5 6 7 6 6 7 6 7 7 5 6 7 7 8 11 13 13 14 14 9 5 6 7 9
3 4 4 5 6 6 6 5 5 5 5 5 5 5 6 6 6 9 9 5 5 5 5 5 7 8 7 6 6 6 8 7 6 6 7 9 10 11 11 10 9 9 9
3 3 4 4 4 3 3 3 3 4 4 3 3 3 3 4 4 7 9 6 6 5 5 4 4 7 7 7 7 7 9 7 6 6 6 7 7 6 7 8 9 9 10
6 6 5 3 2 2 2 1 1 2 3 3 2 2 1 1 2 4 6 7 5 4 4 3 3 4 6 7 6 7 9 7 5 5 6 7 7 7 7 7 9 12 13
7 6 6 5 4 4 3 2 2 1 1 1 1 1 1 0 1 1 3 4 4 3 2 2 3 3 4 4 6 7 6 4 4 5 7 7 7 8 8 7 9 10 12
8 6 6 6 5 5 3 3 2 1 1 1 1 1 1 0 1 1 1 1 1 1 1 1 2 3 3 4 4 4 4 5 5 6 7 8 7 6 7 7 8 8 8
7 6 6 5 4 4 3 3 2 1 1 2 2 2 2 1 2 3 3 2 1 1 1 0 1 2 3 3 4 4 4 4 5 6 7 7 8 8 8 7 7 7 8
7 6 5 4 3 3 3 4 6 3 3 2 2 2 1 2 2 1 2 3 3 3 2 2 3 3 4 4 5 5 5 5 6 6 7 7 8 9 9 8 8 8 10
6 5 4 4 3 3 2 3 3 4 5 4 3 2 1 1 1 2 2 2 2 3 2 4 4 4 5 5 5 6 7 7 6 6 7 8 8 9 9 10 9 9 10
6 6 5 3 3 2 2 2 1 1 2 3 3 2 2 3 3 3 2 1 1 2 3 5 5 5 5 6 6 7 7 7 7 7 8 8 9 9 10 10 10 11 11
5 4 4 3 3 3 2 2 2 2 2 3 3 3 3 3 3 3 2 2 4 4 5 5 6 6 6 7 7 7 8 8 8 8 8 9 9 9 10 11 10 12 12
4 6 5 3 3 3 3 3 2 2 3 3 4 4 3 2 2 3 2 3 5 5 6 6 6 7 6 7 7 7 8 9 9 9 9 10 9 9 11 12 11 11 11
4 4 6 4 3 3 3 3 2 2 3 4 4 5 4 3 4 5 4 4 5 6 6 6 6 7 6 6 7 8 10 9 9 9 10 10 10 10 10 11 11 12 11
3 3 3 3 3 2 2 2 2 2 3 4 5 5 5 3 4 4 5 5 5 6 6 6 7 7 7 7 8 9 9 10 10 9 10 10 10 10 11 11 11 11 12
3 3 3 3 3 3 3 3 3 3 4 4 5 5 5 4 5 5 6 6 6 6 6 6 7 7 7 8 8 8 9 10 9 10 10 11 10 10 10 11 13 13 13
4 4 3 3 3 3 3 3 4 4 4 4 5 5 5 6 6 7 7 7 7 6 6 6 7 10 12 11 10 10 10 10 10 9 12 11 12 11 11 11 12 14 13
4 4 4 4 4 4 4 4 4 5 5 5 5 5 6 6 6 7 7 7 8 8 9 8 7 9 12 14 13 12 12 13 13 12 10 10 12 13 12 13 12 13 13
4 4 4 3 3 4 4 4 5 5 5 6 6 6 6 6 7 7 7 7 8 8 9 9 10 13 14 13 14 15 14 14 13 12 10 9 11 11 12 11 13 12 13
Wind_Direction
180 179 176 177 177 176 182 189 187 182 177 179 182 182 184 186 184 182 187 183 186 191 188 190 200 191 189 186 180 177 181 177 212 257 256 265 268 278 293 289 282 279 281
176 168 170 170 171 178 189 193 187 185 186 186 184 186 192 193 190 191 196 194 194 199 201 199 209 202 202 199 195 199 202 200 207 242 262 263 258 266 274 281 284 279 276
168 167 171 174 179 188 193 190 185 187 188 186 185 193 198 197 196 199 200 200 203 207 205 206 212 203 213 211 209 213 215 212 213 231 258 260 267 271 277 278 279 279 280
169 174 183 187 191 194 190 187 188 188 191 193 195 199 200 199 200 201 202 204 208 211 211 211 212 209 216 215 216 220 218 217 217 233 257 265 266 270 264 274 286 278 282
173 184 195 190 186 185 187 191 189 190 198 198 199 202 201 201 206 202 204 207 210 214 215 217 220 219 219 216 220 221 215 220 225 237 254 264 268 263 263 261 276 288 284
178 191 189 177 178 185 188 187 186 190 191 191 198 200 203 213 211 205 202 207 208 212 219 224 228 228 231 229 231 227 214 219 229 235 249 256 264 262 261 259 269 281 286
182 186 180 178 185 191 187 180 187 191 188 191 198 200 212 220 214 208 205 203 210 216 220 223 230 231 223 231 237 239 234 230 224 229 248 255 262 259 257 264 257 258 265
175 182 181 182 188 184 181 189 193 187 189 199 204 206 214 225 216 210 204 203 212 221 222 223 227 236 231 223 232 245 250 248 239 235 242 252 257 258 248 256 267 270 268
163 173 177 177 180 181 191 196 193 189 197 202 206 206 215 229 217 212 203 205 219 228 229 226 225 231 233 223 228 248 263 268 256 245 246 255 261 262 254 255 259 260 274
164 166 158 160 168 182 193 195 190 191 205 209 215 214 220 228 215 206 198 207 222 233 232 230 229 231 235 227 227 239 258 269 278 282 272 271 269 267 253 237 243 254 267
124 115 118 134 153 171 180 184 184 186 189 198 213 222 220 225 218 202 192 200 214 223 234 238 236 231 239 238 230 234 244 259 273 273 277 280 278 271 263 247 238 240 252
94 92 87 82 90 110 107 118 148 169 184 191 198 223 232 224 206 200 196 205 213 217 233 240 243 242 250 252 246 247 254 259 258 265 273 278 281 280 277 270 257 248 247
86 82 77 70 60 59 73 75 73 115 157 179 183 207 237 167 106 148 180 203 215 223 249 256 266 266 270 266 258 263 264 251 248 260 267 272 273 275 281 283 277 265 260
79 72 70 72 64 55 58 71 87 98 124 144 162 198 215 215 194 167 164 188 186 203 255 294 297 285 272 266 274 270 254 248 249 260 270 275 278 278 278 279 282 284 283
78 71 65 61 62 56 51 52 71 81 175 172 195 206 204 229 234 199 184 194 190 186 167 241 272 271 269 270 268 265 263 261 260 262 268 278 282 282 283 283 277 281 279
73 63 62 60 56 58 59 48 45 52 51 79 128 156 211 218 197 179 207 217 215 188 169 237 254 257 262 268 273 280 274 270 269 269 270 273 278 281 283 283 277 276 278
75 67 62 59 57 50 49 56 38 25 34 46 55 66 117 228 239 244 240 245 242 187 217 253 259 262 267 271 274 279 281 280 276 274 276 277 278 279 280 281 280 278 277
64 59 59 53 48 47 47 45 47 25 351 341 342 331 312 292 280 273 256 203 271 231 247 258 264 267 271 273 275 276 279 282 281 279 277 275 275 275 277 277 276 276 279
57 50 51 50 48 48 44 40 29 8 334 318 326 329 315 294 281 270 227 237 256 261 259 263 266 268 270 270 272 274 276 278 278 277 277 276 274 274 276 275 276 276 276
48 47 52 49 43 40 36 28 13 359 342 328 320 316 330 338 316 303 268 259 263 269 270 271 273 273 272 272 273 275 277 277 278 277 278 278 276 273 274 276 277 278 277
40 33 34 36 27 20 15 6 352 342 331 321 312 306 302 291 287 288 282 273 269 270 272 275 277 278 276 276 276 275 275 277 277 277 278 278 278 278 277 276 277 278 280
43 31 25 21 13 10 2 352 342 332 325 321 318 323 319 301 295 295 293 290 285 280 279 278 279 277 275 275 276 276 276 277 278 280 280 280 280 280 279 278 278 280 280
38 28 19 9 0 350 348 345 339 335 331 328 326 326 326 318 308 303 300 299 299 295 290 282 281 283 283 281 277 273 274 277 281 283 283 283 282 281 280 280 280 283 281
31 23 16 8 5 1 354 350 347 344 341 339 335 330 325 321 317 314 311 309 307 303 301 298 292 293 295 296 292 285 280 282 288 287 284 281 281 281 279 277 277 277 278
30 23 17 11 6 358 351 348 346 344 341 335 331 328 326 325 323 322 322 321 318 313 311 309 303 302 301 300 298 295 292 288 284 285 283 277 275 275 275 276 276 279 278
26 25 22 18 12 3 355 347 342 339 334 329 326 325 325 325 324 325 325 324 322 317 314 312 309 309 307 305 303 303 297 291 287 282 278 274 272 271 273 274 279 278 280
Height
1496 1499 1504 1508 1512 1516 1520 1523 1527 1530 1532 1535 1537 1539 1541 1543 1545 1546 1547 1548 1549 1550 1551 1552 1553 1554 1555 1555 1556 1556 1556 1557 1557 1557 1557 1557 1557 1557 1557 1557 1556 1555 1555
1494 1497 1501 1506 1510 1514 1517 1521 1524 1527 1529 1532 1534 1536 1538 1540 1542 1543 1544 1545 1547 1548 1549 1550 1551 1552 1552 1553 1553 1553 1554 1554 1554 1553 1553 1553 1553 1553 1553 1552 1552 1551 1550
1492 1496 1500 1504 1508 1511 1514 1518 1521 1524 1526 1528 1531 1533 1535 1537 1538 1540 1541 1542 1543 1544 1545 1546 1548 1549 1549 1550 1550 1550 1551 1551 1550 1550 1549 1550 1549 1549 1548 1548 1547 1546 1546
1490 1494 1497 1501 1504 1508 1511 1514 1517 1520 1523 1525 1527 1529 1531 1533 1535 1536 1537 1538 1539 1540 1542 1543 1544 1545 1546 1547 1547 1547 1547 1547 1547 1546 1546 1545 1545 1544 1544 1543 1542 1541 1540
1489 1492 1495 1498 1501 1505 1508 1511 1514 1517 1519 1522 1524 1526 1527 1529 1530 1532 1533 1534 1535 1536 1537 1538 1540 1541 1542 1542 1543 1543 1543 1543 1543 1542 1541 1541 1540 1540 1539 1538 1536 1535 1534
1487 1490 1493 1496 1499 1502 1505 1508 1510 1513 1515 1517 1519 1521 1522 1524 1525 1527 1528 1529 1530 1531 1532 1533 1535 1536 1537 1538 1538 1538 1539 1538 1538 1537 1536 1536 1535 1535 1534 1533 1531 1529 1527
1485 1488 1491 1494 1497 1500 1502 1504 1507 1509 1511 1513 1515 1516 1518 1519 1521 1522 1523 1524 1525 1526 1527 1528 1529 1530 1531 1532 1532 1533 1533 1533 1533 1532 1531 1530 1530 1529 1528 1526 1525 1523 1521
1483 1486 1489 1492 1494 1497 1499 1501 1503 1505 1507 1509 1510 1511 1513 1514 1515 1517 1518 1519 1520 1521 1522 1523 1524 1525 1526 1526 1526 1526 1527 1527 1527 1526 1525 1524 1524 1523 1522 1520 1518 1516 1514
1479 1482 1485 1488 1490 1493 1495 1497 1499 1501 1502 1504 1505 1506 1507 1508 1510 1511 1513 1513 1514 1515 1516 1517 1518 1519 1519 1520 1520 1520 1520 1520 1520 1519 1519 1518 1517 1516 1515 1513 1511 1509 1505
1476 1479 1482 1484 1487 1489 1491 1493 1495 1496 1498 1499 1501 1502 1503 1503 1504 1506 1507 1508 1509 1510 1510 1511 1512 1512 1512 1513 1513 1513 1512 1512 1513 1512 1511 1510 1509 1508 1507 1506 1504 1502 1498
1475 1478 1480 1482 1483 1485 1487 1488 1490 1491 1492 1494 1495 1496 1497 1498 1499 1500 1501 1502 1503 1504 1504 1505 1505 1505 1506 1506 1506 1506 1505 1505 1505 1504 1503 1502 1501 1500 1499 1498 1496 1494 1491
1474 1476 1478 1480 1481 1482 1484 1485 1486 1488 1488 1489 1490 1491 1492 1493 1494 1495 1496 1497 1497 1498 1498 1499 1499 1499 1499 1499 1499 1499 1499 1498 1498 1497 1496 1495 1494 1493 1492 1490 1488 1486 1484
1474 1475 1477 1478 1480 1481 1482 1483 1484 1484 1485 1486 1487 1487 1488 1489 1489 1490 1491 1491 1492 1492 1492 1492 1493 1493 1493 1493 1493 1493 1493 1492 1491 1490 1489 1488 1487 1485 1483 1481 1480 1478 1475
1475 1476 1478 1479 1480 1480 1481 1482 1482 1483 1483 1484 1484 1485 1485 1486 1486 1486 1487 1488 1488 1488 1488 1488 1489 1489 1489 1489 1489 1488 1487 1487 1485 1484 1482 1481 1479 1477 1475 1474 1471 1469 1466
1476 1477 1478 1480 1481 1481 1482 1482 1482 1483 1483 1483 1483 1484 1484 1484 1484 1484 1484 1484 1484 1484 1484 1485 1485 1484 1484 1484 1483 1483 1482 1481 1479 1477 1475 1473 1471 1469 1467 1466 1463 1461 1458
1479 1479 1480 1481 1482 1482 1482 1482 1482 1483 1483 1482 1482 1482 1482 1483 1482 1482 1482 1481 1481 1481 1481 1481 1481 1480 1479 1478 1477 1476 1475 1474 1472 1470 1468 1466 1464 1462 1459 1458 1456 1453 1450
1482 1482 1483 1483 1483 1483 1483 1483 1483 1483 1483 1482 1482 1481 1481 1480 1480 1480 1479 1479 1478 1478 1477 1477 1476 1475 1474 1473 1471 1470 1469 1467 1465 1463 1461 1459 1456 1454 1452 1450 1448 1445 1443
1484 1484 1484 1484 1484 1484 1483 1483 1483 1482 1482 1481 1481 1480 1479 1479 1478 1477 1477 1476 1474 1474 1473 1472 1471 1470 1468 1467 1465 1464 1462 1460 1458 1456 1454 1451 1449 1447 1445 1442 1440 1438 1435
1486 1486 1486 1486 1485 1484 1484 1484 1483 1482 1481 1480 1479 1478 1478 1476 1475 1475 1473 1472 1470 1469 1468 1467 1466 1464 1462 1461 1459 1457 1455 1453 1451 1449 1447 1444 1442 1440 1437 1435 1432 1430 1427
1488 1488 1487 1486 1485 1484 1484 1483 1482 1481 1480 1478 1477 1476 1475 1473 1472 1471 1469 1468 1466 1464 1463 1461 1460 1458 1456 1454 1452 1450 1448 1446 1444 1442 1439 1437 1435 1432 1430 1427 1424 1422 1419
1489 1488 1487 1486 1485 1484 1483 1482 1481 1479 1478 1476 1475 1474 1472 1470 1468 1467 1465 1463 1461 1459 1458 1456 1454 1452 1450 1448 1445 1443 1441 1438 1436 1434 1432 1429 1427 1424 1422 1419 1416 1414 1411
1488 1487 1486 1485 1484 1483 1482 1480 1479 1477 1475 1474 1472 1470 1468 1466 1464 1463 1461 1459 1456 1454 1452 1450 1448 1446 1443 1441 1439 1436 1433 1431 1429 1427 1424 1421 1419 1416 1413 1411 1408 1405 1402
1487 1486 1485 1484 1482 1481 1480 1478 1476 1475 1473 1470 1468 1466 1464 1462 1460 1458 1456 1453 1451 1449 1446 1444 1441 1439 1437 1434 1431 1429 1426 1424 1422 1419 1416 1413 1411 1408 1405 1403 1400 1397 1394
1486 1484 1483 1481 1480 1479 1477 1475 1474 1472 1469 1467 1465 1463 1461 1458 1456 1454 1451 1448 1446 1443 1440 1437 1435 1432 1430 1427 1424 1422 1419 1416 1414 1411 1408 1406 1403 1400 1397 1394 1391 1389 1386
1484 1482 1481 1479 1477 1476 1474 1473 1471 1469 1467 1464 1462 1459 1457 1454 1452 1449 1446 1443 1440 1437 1434 1431 1428 1426 1423 1420 1417 1414 1411 1408 1406 1403 1400 1397 1394 1392 1389 1386 1384 1381 1379
1481 1480 1478 1477 1475 1474 1472 1470 1468 1466 1463 1461 1458 1456 1453 1450 1447 1444 1441 1438 1435 1431 1428 1425 1422 1419 1416 1412 1409 1406 1403 1400 1398 1395 1392 1389 1387 1384 1382 1379 1377 1374 1372